Location: ????????
(55.7810°N, 38.7883°E)
Time: 14:02:50
(UTC+00:00)

Daily predictions for brighter satellites

Satellite Brightness Start Highest point End
(mag) Time Altitude Azimuth Time Altitude Azimuth Time Altitude Azimuth
Cosmos 2369 4.1 13:32:46 10° NNW 13:38:13 42° NE 13:43:39 10° ESE
Cosmos 1980 Rocket 2.8 13:33:42 10° NNW 13:38:59 37° NE 13:44:13 10° ESE
USA 229 DEB 3.9 13:33:51 10° NW 13:41:01 85° NE 13:48:43 10° SE
Cosmos 1862 3.4 13:37:00 10° NNW 13:41:02 87° W 13:45:02 10° S
USA 229 3.9 13:33:56 10° NW 13:41:06 85° NE 13:48:49 10° SE
SL-24 R/B - RUBIN 2 3.9 13:41:11 10° NW 13:45:54 50° NNE 13:50:14 10° ESE
USA 306 3.5 13:42:52 10° WSW 13:47:01 53° SSE 13:51:10 10° E
NOSS 3-4 (A) 4.1 13:42:15 10° W 13:48:08 47° NNW 13:54:42 10° ENE
NOSS 3-4 (C) 4.0 13:42:20 10° W 13:48:14 47° NNW 13:54:47 10° ENE
SL-16 R/B 3.4 13:43:44 10° NNW 13:48:16 23° NNE 13:52:47 10° ENE
Cosmos 2237 Rocket 3.9 13:46:54 10° WNW 13:51:00 20° NNW 13:55:05 10° NNE
ATLAS 2AS CENTAUR R/B 3.2 13:43:17 10° WSW 13:51:03 64° NNW 13:58:27 10° NE
ERBS 3.1 13:48:31 10° SW 13:51:30 37° SSE 13:54:31 10° E
Cosmos 1937 Rocket 3.8 13:46:43 10° NNW 13:51:52 46° NE 13:56:59 10° SE
Cosmos 1271 Rocket 2.8 13:48:41 10° S 13:52:37 69° E 13:56:37 10° NNE
MINOTAUR 4 R/B 4.0 13:52:21 10° NNE 13:55:55 90° SSE 13:59:27 10° SSW
Cosmos 2333 Rocket 3.8 13:52:02 10° NW 13:56:02 19° N 14:00:02 10° NE
Cosmos 2082 Rocket 4.0 13:57:12 10° ESE 13:58:50 11° E 14:00:28 10° ENE
Cosmos 1939 Rocket 3.1 13:55:53 10° SE 13:59:50 47° ENE 14:03:45 10° N
NOSS 2-1 (C) 2.9 13:56:57 10° SW 14:00:09 69° SE 14:03:22 12° NE
Cosmos 1869 4.3 13:57:03 10° SW 14:00:46 45° WNW 14:04:31 10° N
Cosmos 990 Rocket 3.9 13:55:36 10° NNW 14:00:51 79° ENE 14:06:02 10° SSE
Cosmos 1633 Rocket 4.5 13:58:29 10° NNE 14:01:24 17° ENE 14:04:18 10° E
Cosmos 2278 4.2 13:57:21 10° NNW 14:02:43 39° NE 14:08:03 10° ESE
NOAA 6 4.1 13:59:08 10° SE 14:04:09 56° ENE 14:09:11 10° N
H-2A R/B 4.3 14:04:08 11° NE 14:04:09 11° NE 14:05:11 10° NNE
NOSS 3-1 (A) 4.2 13:57:23 10° NW 14:04:29 78° SW 14:12:58 10° SE
SeaSat 1 2.9 14:00:08 10° NNE 14:05:01 61° NW 14:09:52 10° SW
USA 307 3.3 14:01:00 10° WSW 14:05:13 57° SSE 14:09:17 11° E
CZ-4B DEB 4.4 14:00:35 10° SE 14:05:52 50° ENE 14:11:10 10° N
Cosmos 372 Rocket 4.4 14:01:38 10° NNW 14:06:35 41° NE 14:11:33 10° ESE
CORIOLIS 4.3 14:01:36 10° SE 14:06:52 55° ENE 14:12:11 10° N
Cosmos 1408 Rocket 3.5 14:03:20 10° NNW 14:07:43 87° ENE 14:12:06 10° SSE
USA 234 3.9 14:01:38 10° SE 14:08:06 61° SSW 14:14:35 10° WNW
SL-16 R/B 3.8 14:04:37 10° W 14:09:13 24° NNW 14:13:50 10° NNE
NOSS 2-1 (D) 2.8 14:06:19 10° SW 14:09:32 81° SE 14:12:30 14° NE
YAOGAN 1 4.2 14:08:02 12° ENE 14:09:33 14° NE 14:11:50 10° NNE
NOSS 2-2 (D) 4.0 14:07:00 10° NW 14:11:33 74° NE 14:17:51 10° ESE
NOSS 2-2 (E) 4.1 14:07:26 10° NW 14:12:08 84° NE 14:18:43 10° SE
COSMOS 2455 4.4 14:11:16 10° SE 14:14:58 17° ESE 14:17:35 13° ENE
Cosmos 1743 Rocket 3.5 14:10:59 10° N 14:15:18 61° ENE 14:19:36 10° SSE
COSMOS 2406 4.4 14:11:03 10° SSE 14:15:28 23° ESE 14:18:55 14° ENE
Iridium 2 4.3 14:12:11 10° NNW 14:15:53 58° W 14:19:34 10° S
Cosmos 1602 4.1 14:13:30 10° N 14:17:11 41° ENE 14:20:51 10° SE
NOAA 12 4.2 14:12:26 10° SSE 14:17:47 88° WSW 14:23:08 10° NNW
Okean O Rocket 2.6 14:14:25 10° ESE 14:18:06 26° ENE 14:21:48 10° N
Meteor PRIRODA 3.8 14:16:21 10° S 14:19:59 74° WSW 14:23:38 10° NNW
ATLAS CENTAUR R/B 1.8 14:15:52 10° WSW 14:20:07 62° NW 14:24:01 14° NE
SL-16 R/B 4.1 14:16:10 10° N 14:21:25 30° NW 14:26:41 10° WSW
Cosmos 1833 Rocket 3.5 14:17:40 10° SSE 14:22:31 31° ESE 14:26:23 15° NE
Cosmos 858 Rocket 4.5 14:18:30 10° NNW 14:23:48 67° ENE 14:29:04 10° SE
ARGOS 3.7 14:19:04 10° ESE 14:23:53 34° ENE 14:28:43 10° N
Spot 1 4.3 14:20:04 10° NNE 14:24:39 66° ESE 14:29:29 10° S
Cosmos 1943 4.3 14:19:40 10° WSW 14:24:53 37° NW 14:30:07 10° NNE
Cosmos 2219 Rocket 3.8 14:22:13 10° NNW 14:26:09 19° N 14:28:55 14° NE
Cosmos 1666 Rocket 4.4 14:22:34 10° N 14:26:31 29° ENE 14:30:23 10° SE
Cosmos 1782 4.0 14:23:50 10° SE 14:26:57 22° E 14:28:31 18° NE
Cosmos 1464 Rocket 4.0 14:21:09 10° S 14:27:32 83° E 14:33:57 10° NNE
USA 308 3.1 14:23:20 10° WSW 14:27:33 64° S 14:30:47 17° E
Nadezhda 4 Rocket 4.2 14:24:45 10° NNW 14:31:06 82° W 14:37:27 10° S
SJ 16-02 4.0 14:28:10 10° NW 14:31:39 23° W 14:35:07 10° SSW
PAYLOAD B 4.3 14:26:57 10° SE 14:32:28 61° ENE 14:38:00 10° NNW
Cosmos 1340 Rocket 3.1 14:28:35 10° NNW 14:32:40 72° WSW 14:36:44 10° S
CZ-4C R/B 3.7 14:29:02 10° N 14:32:59 64° WNW 14:36:44 10° SSW
Radarsat 4.5 14:30:11 10° SSE 14:35:24 82° ENE 14:40:38 10° NNW
Cosmos 2360 4.4 14:31:16 10° NW 14:37:03 81° WSW 14:42:47 10° SSE
CZ-4C R/B 2.8 14:30:50 10° NW 14:37:30 77° NE 14:45:34 10° ESE
Meteor 1-20 Rocket 4.3 14:32:07 10° NNW 14:37:58 89° ENE 14:43:50 10° SSE
CZ-2C R/B 3.6 14:36:21 16° NE 14:39:15 25° E 14:43:28 10° SE
CZ-4B R/B 3.3 14:34:48 10° SE 14:40:00 51° ENE 14:45:09 10° N
ISS -2.3 14:38:07 10° W 14:41:15 34° SSW 14:44:11 11° SE
Lacrosse 5 rocket 1.1 14:38:51 10° WNW 14:42:41 84° NNE 14:45:18 21° E
Cosmos 1818 3.7 14:37:38 10° NW 14:43:04 57° NNE 14:47:40 14° ESE
CZ-2D R/B 3.2 14:39:42 10° SSE 14:43:30 61° ENE 14:47:17 10° N
Cosmos 1606 3.2 14:40:07 10° SSW 14:43:50 58° WNW 14:47:37 10° N
Cosmos 1500 Rocket 3.8 14:39:46 10° NNW 14:44:15 73° W 14:48:38 10° S
GEOS 3 Rocket 3.6 14:40:03 10° ESE 14:45:13 64° NNE 14:50:21 10° NW
Cosmos 1092 Rocket 4.0 14:39:23 10° N 14:45:49 82° E 14:52:10 10° SSE
Cosmos 540 Rocket 4.1 14:41:39 10° SSE 14:46:13 34° ESE 14:48:43 22° ENE
CZ-4 R/B 2.7 14:47:50 21° NE 14:47:50 21° NE 14:50:12 10° N
SL-08 RB Rocket 4.3 14:46:05 10° SE 14:50:14 34° ENE 14:54:23 10° N
MOS 1-B 4.3 14:44:45 10° SSE 14:50:31 76° ENE 14:56:20 10° NNW
Cosmos 1428 Rocket 4.4 14:44:32 10° N 14:50:42 79° ENE 14:56:52 10° SSE
Cosmos 44 Rocket 3.4 14:45:59 10° NW 14:50:57 57° NNE 14:54:16 20° ESE
CZ-2C R/B 4.1 14:47:22 10° S 14:52:02 44° W 14:56:36 10° NNW
Cosmos 1500 3.1 14:48:29 10° N 14:52:14 61° ENE 14:55:56 10° SSE
SMAP 3.5 14:47:41 10° S 14:52:19 67° WSW 14:56:59 10° NNW
Cosmos 1898 Rocket 4.1 14:47:07 10° NNW 14:52:19 61° WSW 14:57:27 10° S
CZ-4B R/B 4.4 14:49:16 10° SSW 14:53:02 38° W 14:56:39 10° NNW
USA 305 3.0 14:50:29 10° W 14:54:42 69° S 14:56:56 27° E
Cosmos 468 Rocket 4.0 14:50:26 10° S 14:55:30 59° ESE 14:59:08 19° NE
Cosmos 1805 Rocket 3.5 14:51:27 10° NNW 14:55:50 87° W 15:00:10 10° S
Sich 1 2.9 14:52:22 10° N 14:56:41 78° E 15:00:59 10° SSE
Cosmos 2360 Rocket 3.2 14:52:07 10° NNW 14:56:58 28° NNE 14:58:40 24° ENE
Cosmos 1461 4.0 14:56:16 10° W 15:00:04 34° NNW 15:02:06 21° NNE
COSMOS 2428 4.2 14:57:48 10° NNW 15:02:01 20° NNE 15:03:30 19° NE
Cosmos 1933 3.2 14:58:58 10° S 15:02:58 67° E 15:05:56 18° NNE
SL-08 R/B 4.0 14:59:13 10° N 15:03:52 53° WNW 15:08:24 10° SW
Cosmos 1842 Rocket 4.2 15:00:02 10° SSW 15:04:26 57° WNW 15:08:54 10° N
Cosmos 2221 3.4 15:00:43 10° SSW 15:04:53 49° WNW 15:09:06 10° N
Cosmos 1627 Rocket 4.5 15:00:14 10° NNW 15:06:29 86° W 15:12:37 10° S
PSLV R/B 4.0 15:04:51 10° S 15:08:32 66° WSW 15:12:16 10° NNW
NOSS 2-1 (E) 3.6 15:06:20 10° WSW 15:09:32 47° NNW 15:10:46 32° NNE
Meteor 2-16 Rocket 4.4 15:04:35 10° N 15:10:41 67° ENE 15:16:47 10° SSE
Meteor 1-14 Rocket 4.2 15:06:21 10° NNW 15:12:09 72° ENE 15:18:03 10° SSE
Cosmos 2034 Rocket 4.2 15:07:37 10° SSW 15:13:46 70° WNW 15:19:58 10° N
Cosmos 2150 Rocket 4.2 15:08:53 10° NNW 15:13:52 45° NE 15:15:57 30° ESE
USA 267 3.3 15:10:52 27° ENE 15:14:42 67° SSE 15:21:12 10° SW
MOS 1-B Rocket 4.0 15:09:34 10° NNE 15:15:10 56° ESE 15:21:27 10° S
H-2A R/B 2.1 15:11:01 10° SSE 15:16:11 79° WSW 15:21:14 10° NNW
Cosmos 2322 Rocket 2.6 15:11:03 10° NNW 15:16:29 42° NE 15:18:14 33° E
deb Chang Zheng 4 3.4 15:12:31 10° SSE 15:16:51 82° ENE 15:21:11 10° NNW
Cosmos 2266 Rocket 4.2 15:12:41 10° N 15:18:48 47° ENE 15:24:58 10° SE
Cosmos 1697 Rocket 3.9 15:14:06 10° NW 15:19:23 43° WSW 15:24:38 10° S
Cosmos 2279 Rocket 4.1 15:14:02 10° SSE 15:20:00 51° E 15:25:58 10° NNE
Cosmos 1666 2.4 15:18:11 10° N 15:21:56 72° ENE 15:25:38 10° SSE
Cosmos 2369 4.4 15:17:02 10° NW 15:22:39 57° WSW 15:28:14 10° SSE
Cosmos 1980 Rocket 2.5 15:17:45 10° NW 15:23:24 67° WSW 15:29:00 10° SSE
ATLAS 5 CENTAUR R/B 2.5 15:14:29 10° WNW 15:24:17 84° SSW 15:25:50 35° SE
Meteor 1-5 Rocket 4.2 15:18:50 10° NNW 15:24:52 80° ENE 15:30:50 10° SSE
YAOGAN 3 4.4 15:20:48 10° SSE 15:25:09 82° ENE 15:29:33 10° NNW
SJ-11-01 4.2 15:21:37 10° SSE 15:26:23 84° ENE 15:31:10 10° NNW
USA 306 3.0 15:22:27 10° W 15:26:42 70° S 15:27:44 48° ESE
ERBS 2.1 15:24:03 10° W 15:27:11 78° NW 15:27:11 78° NW
COSMO-SKYMED 1 2.7 15:27:55 50° E 15:28:16 51° E 15:32:30 10° S
Cosmos 1763 Rocket 3.5 15:25:23 10° SSW 15:30:28 80° WNW 15:33:29 25° NNE
SL-16 R/B 2.2 15:27:54 10° NNW 15:33:33 59° NE 15:35:32 38° ESE
Cosmos 1125 Rocket 3.5 15:30:12 10° NNW 15:35:23 58° NE 15:36:48 43° ESE
Cosmos 1634 Rocket 4.0 15:29:06 10° S 15:35:27 89° E 15:41:50 10° NNE
Cosmos 841 Rocket 3.4 15:30:46 10° S 15:35:51 61° ESE 15:37:09 46° ENE
ATLAS CENTAUR R/B 2.5 15:29:27 10° SW 15:37:00 50° SSE 15:37:40 46° ESE
Cosmos 2237 Rocket 3.8 15:33:19 10° NNW 15:37:15 19° NNE 15:37:54 18° NNE
H-2A R/B 3.7 15:40:40 27° N 15:40:40 27° N 15:42:40 10° N
Cosmos 1633 Rocket 3.0 15:35:26 10° NNW 15:39:50 85° W 15:44:13 10° S
NOSS 3-4 (A) 4.0 15:34:03 10° WNW 15:40:13 48° NNE 15:42:23 37° ENE
Spot 2 4.4 15:35:11 10° SSE 15:40:17 67° ENE 15:45:22 10° NNW
NOSS 3-4 (C) 4.0 15:34:08 10° WNW 15:40:18 48° NNE 15:42:27 37° ENE
Cosmos 2082 Rocket 2.3 15:36:10 10° S 15:41:40 53° ESE 15:42:35 48° E
SeaSat 1 4.3 15:39:02 14° NNE 15:41:50 22° NNW 15:45:34 10° WNW
Cosmos 2333 Rocket 3.1 15:37:04 10° NNW 15:42:10 31° NNE 15:42:10 31° NNE
Cosmos 1812 3.2 15:38:36 10° S 15:41:26 46° SSE 15:41:26 46° SSE
ATLAS 2AS CENTAUR R/B 3.4 15:35:49 10° WNW 15:43:12 47° N 15:46:02 33° NE
YAOGAN 1 2.5 15:45:10 66° NE 15:45:10 66° NE 15:49:15 10° NNW
USA 307 2.9 15:40:41 10° W 15:44:57 69° S 15:45:19 64° SSE
Cosmos 2278 4.1 15:41:33 10° NW 15:47:12 62° WSW 15:52:49 10° SSE
Cosmos 1655 Rocket 3.9 15:43:19 10° N 15:49:46 73° ENE 15:56:08 10° SSE
NOSS 2-1 (C) 4.4 15:47:51 10° W 15:50:39 31° NNW 15:50:39 31° NNW
SKYMED 3 4.4 15:52:18 80° ENE 15:52:27 82° ESE 15:56:48 10° SSW
Okean-O 4.4 15:56:45 21° N 15:56:45 21° N 15:58:17 10° N
Okean O Rocket 2.2 15:49:47 10° S 15:54:11 58° WSW 15:58:37 10° NNW
SL-16 R/B 4.0 15:51:39 10° NW 15:55:25 18° N 15:56:22 17° NNE
COSMOS 2406 3.2 15:53:23 10° SW 15:59:09 86° NW 16:01:00 46° NNE
ATLAS CENTAUR R/B 2.9 15:55:49 10° WNW 15:59:46 30° NNW 16:00:08 29° N
COSMOS 2455 2.8 15:53:54 10° SSW 15:59:52 67° SE 16:00:45 59° E
Meteor 2-15 4.3 15:54:27 10° S 16:00:26 60° E 16:01:34 52° NE
CSL-04 Rocket 4.2 16:02:45 43° NNE 16:02:45 43° NNE 16:06:40 10° N
Cosmos 1151 Rocket 3.0 15:57:14 10° SSW 16:01:14 76° SSW 16:01:14 76° SSW
Cosmos 1782 3.7 15:59:06 10° SSW 16:02:59 48° WNW 16:04:07 36° NNW
ARGOS 3.8 15:58:40 10° S 16:03:59 56° W 16:09:19 10° NNW
MetOp-A 4.2 16:06:21 59° NNE 16:06:21 59° NNE 16:10:59 10° NNW
Cosmos 1833 Rocket 2.9 16:00:31 10° SW 16:06:07 67° NW 16:08:06 40° NNE
Cosmos 2180 Rocket 4.4 15:59:52 10° S 16:06:12 79° E 16:12:30 10° NNE
USA 308 3.3 16:03:05 10° W 16:06:49 58° SW 16:06:49 58° SW
Cosmos 1470 Rocket 3.6 16:03:19 10° NNW 16:07:44 77° W 16:07:44 77° W
Meteor 2-6 Rocket 4.0 16:04:44 10° S 16:10:28 77° E 16:11:09 67° NE
Cosmos 2219 Rocket 3.2 16:06:37 10° NNW 16:10:39 32° NNE 16:10:39 32° NNE
SKYMED 2 3.9 16:16:32 63° W 16:16:32 63° W 16:20:42 10° SSW
ISS -0.9 16:15:27 10° WSW 16:17:10 15° SW 16:17:10 15° SW
Cosmos 2298 Rocket 4.2 16:13:06 10° NNW 16:18:25 69° WSW 16:19:52 47° S
Meteor 2-8 Rocket 4.3 16:13:52 10° S 16:20:02 89° WNW 16:23:55 25° NNE
CZ-2C R/B 2.8 16:17:52 35° N 16:20:03 68° WNW 16:25:11 10° SSW
Lacrosse 5 rocket 2.6 16:17:56 10° WNW 16:20:54 36° WSW 16:20:54 36° WSW
CZ-4 R/B 3.1 16:23:49 27° NNW 16:23:49 27° NNW 16:25:45 10° NNW
Cosmos 1570 Rocket 4.4 16:17:42 10° SSW 16:21:37 51° S 16:21:37 51° S
Meteor 1-11 Rocket 3.7 16:18:05 10° NNW 16:23:42 81° WSW 16:25:14 50° S
CZ-4C R/B 3.9 16:19:22 10° NW 16:26:01 45° SW 16:33:46 10° SSE
Cosmos 1818 4.4 16:21:24 10° NW 16:26:40 48° SW 16:28:21 36° S
Cosmos 2237 4.2 16:21:41 10° NW 16:27:01 76° N 16:27:01 76° N
Cosmos 540 Rocket 4.1 16:22:41 10° SW 16:27:40 52° NW 16:28:34 46° NNW
Cosmos 1814 Rocket 4.3 16:25:39 10° SSW 16:29:52 59° SW 16:29:52 59° SW
Cosmos 44 Rocket 4.3 16:27:46 10° NW 16:32:24 41° SW 16:33:02 39° SW
USA 305 4.4 16:30:15 10° W 16:32:56 35° WSW 16:32:56 35° WSW
IRS-1C Rocket 4.3 16:39:33 67° W 16:39:33 67° W 16:44:33 10° NNW
Cosmos 2360 Rocket 2.7 16:36:06 10° NNW 16:40:26 53° NNW 16:40:26 53° NNW
COSMOS 2428 4.0 16:42:20 10° NNW 16:45:30 30° N 16:45:30 30° N
USA 267 3.2 16:58:13 80° NW 16:58:13 80° NW 17:04:29 10° W
Cosmos 2322 Rocket 2.8 16:55:12 10° NW 17:00:05 53° W 17:00:05 53° W
SL-16 R/B 3.5 17:12:19 10° NW 17:17:26 36° WSW 17:17:26 36° WSW
Cosmos 2237 Rocket 4.2 17:17:49 10° NNW 17:19:43 20° NNW 17:19:43 20° NNW
Cosmos 2082 Rocket 3.5 17:20:32 10° WSW 17:24:28 36° W 17:24:28 36° W
Cosmos 2333 Rocket 3.8 17:21:22 10° NW 17:24:11 30° NW 17:24:11 30° NW
NOSS 3-4 (A) 4.3 17:25:07 10° NW 17:29:49 51° NW 17:29:49 51° NW
NOSS 3-4 (C) 4.3 17:25:13 10° NW 17:29:54 51° NW 17:29:54 51° NW
ATLAS 2AS CENTAUR R/B 3.5 17:27:52 10° NW 17:33:27 48° NNW 17:33:27 48° NNW
COSMOS 2455 4.4 17:40:22 10° WSW 17:43:55 32° W 17:43:55 32° W
Cosmos 2219 Rocket 4.3 17:50:36 10° NW 17:52:21 21° NW 17:52:21 21° NW
